Location: Newark
(47.5575°N, 10.7497°E)
Time: 23:13:53
(UTC+00:00)

X-37B - Visible Passes

Search period start: 30 September 2020 00:00
Search period end: 10 October 2020 00:00
Orbit: 386 x 387 km, 45.0° (Epoch: 18 September)

Date Brightness Start Highest point End Pass type
(mag) Time Alt. Az. Time Alt. Az. Time Alt. Az.
03 Oct 2.3 18:12:59 10° SSW 18:15:15 19° SSE 18:15:15 19° SSE visible
04 Oct 2.3 18:50:04 10° SW 18:51:46 25° SW 18:51:46 25° SW visible
05 Oct 1.8 17:51:50 10° SW 17:54:36 28° SSE 17:55:54 20° ESE visible
05 Oct 3.7 19:27:49 10° WSW 19:28:11 13° WSW 19:28:11 13° WSW visible
06 Oct 1.1 18:29:20 10° WSW 18:32:15 46° S 18:32:15 46° S visible
07 Oct 1.4 17:30:57 10° SW 17:33:55 37° SSE 17:36:16 14° E visible
07 Oct 2.9 19:07:12 10° W 19:08:32 22° WSW 19:08:32 22° WSW visible
08 Oct 0.9 18:08:41 10° WSW 18:11:47 53° S 18:12:31 41° SE visible
09 Oct 1.2 17:10:13 10° WSW 17:13:17 47° S 17:16:21 10° E visible
09 Oct 2.0 18:46:37 10° W 18:48:46 34° WSW 18:48:46 34° WSW visible
